Location: *
(40.7873°S, 98.7174°E)
Time: 12:05:36
(UTC+00:00)

Cosmos 192 - Pass Details

Date: 30 September 2022
Orbit: 701 x 711 km, 74.0° (Epoch: 25 November)

Event Time Altitude Azimuth Distance (km) Brightness Sun altitude
Rises 19:32:09 0° 189° (S) 3,137 8.1 -36.2°
Reaches altitude 10° 19:34:51 10° 176° (S) 2,212 7.4 -35.8°
Maximum altitude 19:39:03 26° 119° (ESE) 1,382 6.3 -35.2°
Enters shadow 19:39:29 26° 110° (ESE) 1,394 6.3 -35.2°
